Back to catalog

KINEIS-4E

AliveCommunicationsSSO
NORAD 63300·PAYLOAD·🇫🇷 France

Launched Mar 18, 2025 from Rocket Lab Launch Complex 1

Loading…

Next Passes (next 24 hours)

TLE

FreshSource: Space-Track

Epoch: Sep 14, 2026, 14:50 UTC

1 63300U 25056A   26257.61815380  .00001137  00000-0  18749-3 0  9998
2 63300  97.9137  19.0830 0001096 178.0218 182.0994 14.72307529 80285

Track KINEIS-4E in real time with AllMySat

Download on the App Store